Weather History for Petrolina Airport, Brazil

Change the Weather History Date:

Wednesday, April 17, 2013

  Actual Average Record
Temperature  
Mean Temperature 83 °F -  
Max Temperature 95 °F - - ()
Min Temperature 71 °F - - ()
Cooling Degree Days 18    
Growing Degree Days 33 (Base 50)    
Moisture  
Dew Point 70 °F    
Average Humidity 71    
Maximum Humidity 100    
Minimum Humidity 38    
Precipitation  
Precipitation 0.00 in - - ()
Sea Level Pressure  
Sea Level Pressure 29.90 in    
Wind  
Wind Speed 3 mph ()    
Max Wind Speed 12 mph    
Max Gust Speed 34 mph    
Visibility 5.5 miles    
Events Rain , Thunderstorm    
T = Trace of Precipitation, MM = Missing Value Source: Averaged Metar Reports

Daily Weather History Graph

Daily Weather History Graph

Search for Another Location

Airport:

Trip Planner

Search our weather history database for the weather conditions in past years. The results will help you decide how hot, cold, wet, or windy it might be!

Date:

Astronomy

Apr. 17, 2013 Rise Set
Actual Time 5:45 AM BRT 5:37 PM BRT
Civil Twilight 5:24 AM BRT 5:59 PM BRT
Nautical Twilight 4:59 AM BRT 6:23 PM BRT
Astronomical Twilight 4:34 AM BRT 6:48 PM BRT
Moon 11:24 AM BRT (4/17) 11:22 PM BRT (4/17)
Length of Visible Light 12h 35m
Length of Day
11h 52m
Waxing Crescent, 42% of the Moon is Illuminated
Apr 17
Waxing Crescent
Apr 18
First Quarter
Apr 25
Full
May 2
Last Quarter
May 9
New

Hourly Weather History & Observations

Time (BRT) Temp. Heat Index Dew Point Humidity Pressure Visibility Wind Dir Wind Speed Gust Speed Precip Events Conditions
12:00 AM 82.4 °F 86.3 °F 69.8 °F 66% 29.92 in - North 2.3 mph - N/A   Clear
1:00 AM 80.6 °F 83.9 °F 69.8 °F 70% 29.89 in 6.2 mi WNW 1.2 mph - N/A   Scattered Clouds
1:32 AM 80.6 °F 84.6 °F 71.6 °F 74% 29.89 in 5.0 mi ESE 5.8 mph - N/A Thunderstorm Thunderstorm
2:00 AM 73.4 °F - 66.2 °F 78% 29.89 in 0.7 mi SSE 11.5 mph 34.5 mph N/A Rain , Thunderstorm Thunderstorms and Rain
3:00 AM 71.6 °F - 69.8 °F 94% 29.89 in 1.9 mi SW 3.5 mph - N/A Rain , Thunderstorm Thunderstorms and Rain
3:29 AM 73.4 °F - 71.6 °F 94% 29.92 in 3.1 mi East 4.6 mph - N/A Rain , Thunderstorm Light Thunderstorms and Rain
4:00 AM 73.4 °F - 71.6 °F 94% 29.92 in 3.1 mi ESE 3.5 mph - N/A Rain Light Rain
5:00 AM 73.4 °F - 71.6 °F 94% 29.92 in 6.2 mi SSW 4.6 mph - N/A   Mostly Cloudy
6:00 AM 75.2 °F - 73.4 °F 94% 29.95 in 6.2 mi West 3.5 mph - N/A   Mostly Cloudy
7:00 AM 75.2 °F - 73.4 °F 94% 29.98 in 6.2 mi West 2.3 mph - N/A   Mostly Cloudy
8:00 AM 75.2 °F - 75.2 °F 100% 29.98 in 6.2 mi WNW 2.3 mph - N/A   Mostly Cloudy
9:00 AM 78.8 °F - 73.4 °F 83% 29.98 in 6.2 mi ESE 2.3 mph - N/A   Mostly Cloudy
10:00 AM 82.4 °F 87.2 °F 71.6 °F 70% 29.98 in 6.2 mi SSE 3.5 mph - N/A   Scattered Clouds
11:00 AM 87.8 °F 92.6 °F 69.8 °F 55% 29.95 in 6.2 mi ENE 6.9 mph - N/A   Scattered Clouds
12:00 PM 91.4 °F 96.8 °F 69.8 °F 49% 29.92 in 6.2 mi NNE 3.5 mph - N/A   Scattered Clouds
1:00 PM 93.2 °F 97.7 °F 68.0 °F 44% 29.89 in 6.2 mi SW 2.3 mph - N/A   Partly Cloudy
2:00 PM 93.2 °F 97.7 °F 68.0 °F 44% 29.86 in 6.2 mi SSW 3.5 mph - N/A   Scattered Clouds
3:00 PM 95.0 °F 98.5 °F 66.2 °F 39% 29.83 in 6.2 mi South 4.6 mph - N/A   Partly Cloudy
4:00 PM 95.0 °F 98.5 °F 66.2 °F 39% 29.80 in 6.2 mi SE 3.5 mph - N/A   Partly Cloudy
5:00 PM 93.2 °F 94.9 °F 64.4 °F 38% 29.80 in 6.2 mi WSW 2.3 mph - N/A   Scattered Clouds
6:00 PM 86.0 °F 89.4 °F 68.0 °F 55% 29.80 in 6.2 mi West 2.3 mph - N/A   Partly Cloudy
7:00 PM 82.4 °F 85.4 °F 68.0 °F 62% 29.83 in 6.2 mi WNW 4.6 mph - N/A   Partly Cloudy
8:00 PM 80.6 °F 83.9 °F 69.8 °F 70% 29.86 in 6.2 mi NW 3.5 mph - N/A   Partly Cloudy
9:00 PM 80.6 °F 84.6 °F 71.6 °F 74% 29.89 in 6.2 mi SSW 3.5 mph - N/A   Scattered Clouds
10:00 PM 78.8 °F - 73.4 °F 83% 29.92 in 6.2 mi South 2.3 mph - N/A   Scattered Clouds
11:00 PM 78.8 °F - 73.4 °F 83% 29.89 in 6.2 mi SSW 3.5 mph - N/A   Scattered Clouds